Location: Brantley
(31.5822°N, 86.2569°W)
Time: 00:02:49
(UTC+00:00)

Courier 1B Rocket - Pass Details

Date: 25 February 2026
Orbit: 920 x 1201 km, 28.2° (Epoch: 9 March)

Event Time Altitude Azimuth Distance (km) Brightness Sun altitude
Rises 21:34:47 0° 244° (WSW) 3,715 9.5 24.3°
Reaches altitude 10° 21:37:36 10° 238° (WSW) 2,726 9.4 23.8°
Maximum altitude 21:43:51 48° 166° (SSE) 1,206 6.0 22.6°
Drops below altitude 10° 21:49:51 10° 93° (E) 2,613 6.8 21.5°
Sets 21:52:30 0° 88° (E) 3,548 7.4 21.0°
